Regional Weather Roundup
Issued by NWS

Home | Current Version | Previous Version | Graphics & Text | Print | Product List | Glossary On
Versions: 1 2 3 4 5 6 7 8 9 10 11 12 13 14 15 16 17 18 19 20 21 22 23 24 25 26 27 28 29 30 31 32 33 34 35 36 37 38 39 40 41 42 43 44 45 46 47 48 49 50
000
ASUS43 KBIS 040810
RWRND

NORTH DAKOTA REGIONAL WEATHER ROUNDUP
NATIONAL WEATHER SERVICE BISMARCK ND
300 AM CDT TUE AUG 04 2015

NOTE: "FAIR" INDICATES FEW OR NO CLOUDS BELOW 12,000 FEET WITH NO
SIGNIFICANT WEATHER AND/OR OBSTRUCTIONS TO VISIBILITY.


NDZ001>003-009>011-017-040900-
NORTHWEST NORTH DAKOTA

CITY           SKY/WX    TMP DP  RH WIND       PRES   REMARKS
WILLISTON      CLEAR     65  51  60 CALM      29.97S
MINOT          CLEAR     57  50  77 W3        29.97S
MINOT AFB      CLEAR     51  49  93 CALM      29.96S
$$

NDZ018>021-031>035-040>046-040900-
SOUTHWEST NORTH DAKOTA

CITY           SKY/WX    TMP DP  RH WIND       PRES   REMARKS
BISMARCK       CLEAR     56  49  77 E3        29.98S
DICKINSON      CLEAR     54  49  83 E8        29.97S
GARRISON         N/A     55  50  83 NE3       29.98F
HETTINGER ARPT MOCLDY    60  51  72 E7        29.99S
$$

NDZ004>008-012>016-024-026-027-054-040900-
NORTHEAST NORTH DAKOTA

CITY           SKY/WX    TMP DP  RH WIND       PRES   REMARKS
GRAND FORKS    CLEAR     50  48  93 NW5       29.94S
GRND FRKS AFB  CLEAR     52  48  89 N5        29.95S
DEVILS LAKE    CLEAR     59  48  67 CALM      29.97R
$$

NDZ022-023-025-028>030-036>039-047>053-040900-
SOUTHEAST NORTH DAKOTA

CITY           SKY/WX    TMP DP  RH WIND       PRES   REMARKS
FARGO          CLEAR     56  49  77 SW5       29.95R
JAMESTOWN      CLEAR     55  53  93 CALM      29.97S
$$




USA.gov is the U.S. government's official web portal to all federal, state and local government web resources and services.